Regional Weather Roundup
Issued by NWS Albany, NY

Home | Current Version | Previous Version | Text Only | Print | Product List | Glossary On
Versions: 1 2 3 4 5 6 7 8 9 10 11 12 13 14 15 16 17 18 19 20 21 22 23 24 25 26 27 28 29 30 31 32 33 34 35 36 37 38 39 40 41 42 43 44 45 46 47 48 49 50
000
ASUS41 KALY 241710
RWRALY

NEW YORK STATE HOURLY WEATHER ROUNDUP
NATIONAL WEATHER SERVICE ALBANY NY
1200 PM EST SAT FEB 24 2018

NOTE: "FAIR" INDICATES FEW OR NO CLOUDS BELOW 12,000 FEET WITH NO
SIGNIFICANT WEATHER AND/OR NO OBSTRUCTIONS TO VISIBILITY.

NYZ032-033-038>043-046>054-057>066-NYZ062>081-082-084-241800-
EAST


CITY           SKY/WX    TMP DP  RH WIND       PRES   REMARKS
ALBANY         CLOUDY    44  30  57 W10       30.21R
GLENS FALLS    CLOUDY    43  31  62 N13       30.18R
POUGHKEEPSIE   LGT RAIN  49  39  68 N7        30.17R
NEWBURGH       CLOUDY    50  43  76 W9        30.18R
MONTGOMERY     LGT RAIN  48  39  71 W9        30.15R
WHITE PLAINS   PTSUNNY   53  40  61 NW8       30.14S
ISLIP          PTSUNNY   53  41  63 NW10      30.14F
NEW YORK CITY  CLOUDY    53  38  56 NW14      30.17R
CENTRAL PARK   CLOUDY    54  39  57 VRB6      30.20R
$$

NYZ005>009-017-018-044>046-055-056-241800-
CENTRAL


CITY           SKY/WX    TMP DP  RH WIND       PRES   REMARKS
FULTON         CLOUDY    41  29  62 NW7       30.24F
SYRACUSE       CLOUDY    40  31  70 N6        30.23F
ROME           CLOUDY    41  31  67 NW13      30.23F
ELMIRA         CLOUDY    40  33  76 E8        30.19F WCI  34
BINGHAMTON     CLOUDY    37  32  82 N9        30.17F WCI  30
MONTICELLO       N/A     39  37  92 MISG        N/A
$$

NYZ026>034-041>043-087-241800-
NORTH


CITY           SKY/WX    TMP DP  RH WIND       PRES   REMARKS
WATERTOWN      FAIR      41  33  73 W8        30.23F
FORT DRUM      NOT AVBL
OGDENSBURG     PTSUNNY   39  31  72 N6        30.23S WCI  35
MASSENA        FAIR      40  30  67 W12       30.24S WCI  33
SARANAC LAKE   CLOUDY    33  29  85 W7        30.14R WCI  27
PLATTSBURGH    CLOUDY    39  30  70 NW12      30.20R WCI  32
$$

NYZ001>004-010>016-019>021-085-241800-
WEST


CITY           SKY/WX    TMP DP  RH WIND       PRES   REMARKS
NIAGARA FALLS  PTSUNNY   38  28  67 NE10      30.24S WCI  31
BUFFALO        CLOUDY    38  32  79 NE9       30.23S WCI  31
DUNKIRK        CLOUDY    39  31  72 N10       30.22F WCI  32
JAMESTOWN        N/A    N/A N/A N/A MISG        N/A
WELLSVILLE     CLOUDY    41  36  82 N6        30.16F
ROCHESTER      CLOUDY    39  30  70 N9        30.23F WCI  33
PENN YAN       CLOUDY    40  29  64 CALM      30.22F
$$

             KEY
       WCI = WIND CHILL INDEX
       VSB = VISIBILITY
       HX  = HEAT INDEX
$$



USA.gov is the U.S. government's official web portal to all federal, state and local government web resources and services.